Home > Time Zones > World Clock > Weather > Mali > Bamako > Past weeks

Flag for Mali Weather past 2 weeks in Bamako, Mali

Now
79 °F

Passing clouds.


Feels Like: 83 °F
Forecast: N/A
Wind: 2 mph from Southwest

Location: Bamako / Senou

Current Time: Sep 3, 2015 at 11:43:51 PM

Latest Report: Sep 3, 2015 at 10:30 PM


Visibility: N/A

Pressure: 30.01 "Hg

Humidity: 100%

Dew point: 79 °F

Location of BamakoLocation

Historic Weather in Bamako — Graph

°F

Bamako temperature yesterday

Maximum temperature yesterday: 88 °F (at 2:30 PM)
Minimum temperature yesterday: 70 °F (at 2:00 AM)
Average temperature yesterday: 78 °F

Past Weeks' High & Low Weather Summary

 TemperatureHumidityPressure
High95 °F (Aug 24, 3:00 PM)100% (Aug 19, 9:00 PM)30.07 "Hg (Aug 19, 9:00 PM)
Low68 °F (Aug 25, 5:30 AM)47% (Aug 24, 3:00 PM)29.86 "Hg (Aug 20, 3:30 AM)
Average78 °F89%29.96 "Hg
* Reported Aug 19 9:00 PM — Sep 3 9:00 PM, Bamako, Weather by CustomWeather, © 2015

Note: Actual official high and low records may vary slightly from our data, if they occured in-between our weather recording intervals... More about our weather records

Advertising

Bamako weather history for previous 24 hours

 ConditionsComfort  
Time TempWeatherWind HumidityBarometerVisibility
9:00 PM
Thu, Sep 3
81 °FPassing clouds.2 mph89%29.95 "HgN/A
7:30 PM82 °FPassing clouds.5 mph84%29.95 "HgN/A
7:00 PM84 °FPassing clouds.3 mph79%29.95 "HgN/A
6:00 PM86 °FScattered clouds.7 mph70%29.89 "HgN/A
5:30 PM88 °FScattered clouds.8 mph62%29.92 "HgN/A
4:00 PM88 °FScattered clouds.7 mph66%29.92 "HgN/A
3:30 PM88 °FPartly sunny.7 mph59%29.92 "HgN/A
3:00 PM88 °FPartly sunny.7 mph66%29.92 "HgN/A
2:00 PM88 °FPartly sunny.7 mph62%29.95 "HgN/A
1:30 PM88 °FPartly sunny.7 mph62%29.95 "HgN/A
12:00 PM84 °FPartly sunny.8 mph70%30.01 "HgN/A
11:00 AM84 °FScattered clouds.7 mph70%30.01 "HgN/A
9:00 AM79 °FBroken clouds.2 mph84%29.98 "HgN/A
8:30 AM77 °FScattered clouds.3 mph94%30.01 "HgN/A
8:00 AM75 °FScattered clouds.1 mph100%30.01 "HgN/A
6:00 AM73 °FPassing clouds.No wind100%29.98 "HgN/A
3:00 AM77 °FPassing clouds.2 mph94%29.95 "HgN/A
12:00 AM77 °FPassing clouds.No wind100%30.01 "HgN/A
11:30 PM
Wed, Sep 2
79 °FPassing clouds.3 mph94%30.01 "HgN/A
11:00 PM79 °FPassing clouds.5 mph94%30.01 "HgN/A
Weather by CustomWeather, © 2015

See weather overviewHow to use our weather pages